Location: Unspecified
(0.0000°N, 0.0000°E)
Time: 01:18:45
(UTC+01:00)

IUS-9 SRM-1 - Visible Passes

Search period start: 03 December 2016 00:00
Search period end: 13 December 2016 00:00
Orbit: 245 x 19899 km, 26.4° (Epoch: 01 December)

Date Brightness Start Highest point End Pass type
(mag) Time Alt. Az. Time Alt. Az. Time Alt. Az.
03 Dec 7.0 00:12:28 10° W 03:57:57 50° S 04:10:01 10° E visible
03 Dec 7.4 16:19:23 10° NW 16:38:43 65° NE 20:37:44 10° ESE visible
03 Dec 7.5 23:02:12 10° W 03:10:35 49° S 03:27:23 10° ESE visible
04 Dec 7.1 15:37:22 10° NW 15:52:39 54° NE 19:34:31 10° ESE visible
04 Dec 7.7 22:05:58 10° W 02:20:03 50° S 02:44:21 10° ESE visible
05 Dec 7.9 21:15:21 10° W 01:22:38 51° S 02:00:51 10° ESE visible
06 Dec 8.1 20:27:40 10° W 22:16:39 55° SW 01:16:45 10° ESE visible
07 Dec 8.3 19:41:44 10° WNW 21:04:24 63° SW 00:31:51 10° ESE visible
08 Dec 4.0 06:20:42 10° WSW 06:40:35 64° NW 06:44:35 10° NE visible
08 Dec 8.5 18:56:54 10° WNW 19:57:17 71° SW 23:45:57 10° ESE visible
09 Dec 4.5 05:24:29 10° WSW 05:57:36 89° NNW 06:02:36 10° ENE visible
09 Dec 8.6 18:12:50 10° WNW 18:55:49 79° SW 22:58:38 10° ESE visible
10 Dec 5.3 04:15:54 10° WSW 05:13:55 75° SSE 05:20:21 10° ENE visible
10 Dec 8.2 17:29:16 10° WNW 18:00:13 87° SW 22:09:21 10° ESE visible
11 Dec 6.0 02:21:58 10° WSW 04:29:22 66° SSE 04:37:50 10° E visible
11 Dec 7.8 16:46:05 10° NW 17:09:02 84° NE 21:17:02 10° ESE visible
12 Dec 6.7 00:04:37 10° WSW 03:43:38 60° SSE 03:55:02 10° E visible
12 Dec 7.4 16:03:11 10° NW 16:20:46 74° NE 20:19:48 10° ESE visible
